User: anonymous   Login
Location: Al Mulaqqa?ah
(24.1833°N, 32.8833°E)
Time: 14:27:48
(UTC+00:00)
Language:

CZ-4 R/B - Orbit

View from above orbital plane
View from above orbital plane
View from above satellite
View from above satellite

Ground track
Ground track

The orbit data is extracted from the following two-line orbital elements,

1 29507U 06046C   21330.80607956  .00000306  00000-0  28210-4 0  9995
2 29507  97.7609 356.5317 0045699 187.4426 172.6125 15.01237840824467
Epoch (UTC): 26 November 2021 19:20:45
Eccentricity: 0.0045699
inclination: 97.7609°
perigee height: 531 km
apogee height: 595 km
right ascension of ascending node: 356.5317°
argument of perigee: 187.4426°
revolutions per day: 15.01237840
mean anomaly at epoch: 172.6125°
orbit number at epoch: 82446

The dashed part of the orbit path shows where the satellite is in the earth's shadow,  

DLR